Wind_Speed
33 32 29 29 29 27 26 25 24 25 23 23 23 22 21 21 21 21 21 20 20 19 19 19 19 20 20 21 21 22 22 23 23 24 25 26 26 26 27 28 28 28 29 30
34 31 30 30 29 27 26 25 25 25 24 24 23 22 21 21 21 21 21 20 20 19 19 19 20 20 21 21 22 23 23 24 25 25 26 26 27 27 28 28 28 29 30 31
34 30 30 29 28 28 26 25 25 25 25 24 24 22 21 21 21 21 20 20 19 19 20 20 20 21 22 22 23 24 24 25 26 26 26 27 27 28 28 29 30 30 31 32
32 30 29 28 28 28 27 26 25 24 25 24 24 24 21 20 21 21 20 20 20 20 20 21 21 22 23 24 24 25 26 26 26 27 27 28 28 28 29 30 31 32 33 34
30 29 29 28 27 28 27 26 25 25 25 25 23 26 23 19 19 21 21 20 20 21 21 22 23 24 24 25 25 26 27 27 27 28 28 29 30 31 31 32 33 34 35 36
31 30 29 28 27 27 25 26 26 25 26 25 22 25 24 20 19 21 21 21 21 21 22 23 24 25 26 26 27 28 28 28 29 30 30 31 32 33 34 35 36 37 38 39
32 32 30 29 28 27 26 26 25 26 26 25 22 23 24 21 20 21 21 22 22 23 24 24 25 26 27 28 29 29 29 30 31 32 33 33 34 35 36 37 38 39 40 41
33 32 30 29 28 27 27 27 26 26 25 26 22 22 22 21 23 23 22 22 23 24 25 26 27 28 29 29 30 30 31 32 33 34 35 36 37 38 39 40 40 41 42 43
33 33 31 29 28 29 27 25 25 26 26 26 24 23 21 21 23 25 24 23 24 25 26 27 28 29 30 31 32 32 33 35 36 36 37 38 39 40 41 42 43 44 45 46
32 33 30 29 29 28 26 25 25 26 26 26 24 24 24 20 23 25 26 26 26 27 27 29 30 31 32 33 34 35 36 37 37 38 39 40 41 42 43 44 45 46 48 49
29 30 29 27 27 26 26 25 26 27 27 27 26 25 25 22 23 25 26 27 27 28 29 31 32 33 34 36 37 38 39 39 40 41 42 43 44 45 45 46 48 49 51 52
28 30 29 28 27 27 27 26 26 27 27 28 27 27 25 25 26 27 28 28 29 30 32 33 34 36 37 38 39 40 41 41 42 43 44 45 46 46 47 48 50 51 53 54
29 29 29 28 27 27 27 26 26 27 28 28 28 27 26 27 28 29 29 30 31 32 34 35 37 38 39 40 41 42 43 44 44 45 45 46 47 48 49 51 52 54 55 57
30 30 28 28 28 27 26 26 27 28 28 28 27 27 28 29 30 30 31 32 33 34 36 38 39 40 41 42 43 44 44 45 46 46 47 48 49 51 52 53 55 56 58 59
31 30 29 29 30 29 27 27 28 28 28 29 27 28 28 32 33 33 34 35 36 37 38 39 41 42 43 43 44 45 46 46 47 48 50 51 52 53 54 55 57 58 60 61
32 32 31 31 30 30 30 28 28 28 28 29 30 29 29 33 35 37 37 38 38 39 40 41 42 43 43 44 45 46 47 48 50 51 52 53 54 55 56 58 59 60 62 63
33 32 32 32 32 33 32 28 29 29 29 31 32 31 33 35 36 38 39 40 40 41 41 42 43 44 45 46 47 48 49 50 51 52 53 54 55 56 58 60 61 62 63 65
33 33 33 33 34 36 30 29 29 30 30 32 33 34 35 36 37 38 39 40 41 42 43 43 44 45 46 47 48 49 50 51 52 53 54 55 57 58 59 61 62 64 66 67
35 35 35 35 35 35 32 31 30 32 32 32 34 35 37 37 39 39 40 41 42 43 44 45 45 46 47 48 49 50 51 52 53 54 55 57 58 59 61 62 64 66 68 69
36 36 36 36 36 36 33 32 32 33 33 31 34 36 38 39 39 39 41 42 43 43 44 45 46 47 48 49 50 51 52 53 54 55 56 58 59 61 62 64 66 68 70 71
35 36 36 35 36 36 33 33 33 35 34 34 35 37 38 39 39 40 41 42 43 44 45 46 47 48 48 49 50 51 52 54 55 56 57 59 61 63 64 66 68 70 72 73
34 35 36 36 37 35 33 34 35 36 37 38 38 39 39 40 40 41 42 43 44 45 46 47 48 48 49 50 51 52 53 55 56 57 59 60 62 64 66 68 70 72 74 75
34 35 35 37 37 36 36 36 37 38 39 40 40 41 41 41 42 42 43 44 45 46 47 48 48 49 50 51 52 53 54 56 57 59 61 63 64 66 68 70 72 74 75 76
36 36 36 36 36 36 37 38 39 39 40 41 42 42 42 43 43 43 44 45 46 47 47 48 49 49 50 51 53 54 56 58 59 61 63 64 66 68 70 72 74 75 75 75
37 36 36 36 36 37 37 38 39 40 41 41 42 43 43 44 44 44 45 46 46 47 48 49 49 50 51 52 54 56 58 60 61 63 64 66 68 70 72 73 74 74 74 74
35 36 35 36 36 38 38 39 40 41 42 43 43 44 44 44 45 45 46 47 47 48 48 49 50 51 53 54 56 58 60 62 63 65 67 69 71 72 73 74 74 73 73 72
Wind_Direction
242 243 244 246 248 249 253 257 261 265 267 268 269 269 270 273 275 277 276 276 276 276 277 279 281 283 285 287 287 288 288 289 289 289 289 288 288 288 288 288 287 287 288 288
243 242 243 244 246 248 251 254 259 263 265 268 269 270 271 273 275 276 276 276 277 277 279 281 283 285 286 288 289 289 289 290 290 290 290 289 289 289 289 288 288 289 289 289
244 242 242 244 245 246 249 254 257 262 263 266 269 269 271 272 273 275 276 277 278 279 281 283 285 287 288 288 289 289 290 291 291 291 290 289 290 289 289 289 290 290 290 290
243 241 241 243 245 246 248 253 256 259 262 265 269 270 269 271 273 275 276 277 278 280 282 284 286 288 288 289 289 290 291 292 292 291 291 291 291 291 290 290 291 291 291 292
242 240 241 242 245 248 250 252 255 257 261 264 269 272 272 269 273 274 275 276 278 280 283 285 287 288 289 289 290 292 292 292 292 292 292 291 291 291 291 291 291 292 292 292
242 241 240 241 244 248 250 251 255 257 261 264 266 271 273 273 273 275 276 277 278 281 283 285 287 288 289 290 291 291 292 292 292 292 292 291 291 292 292 292 292 293 293 293
242 242 241 241 243 246 249 252 255 257 260 264 264 268 275 280 276 274 276 278 279 281 283 285 286 288 289 290 290 291 291 291 292 292 292 291 291 291 292 292 293 293 294 294
242 242 242 241 243 245 248 250 253 256 260 264 265 268 275 280 278 277 277 278 280 282 284 285 287 288 289 290 290 290 290 291 292 292 291 291 291 291 292 293 293 293 293 294
243 243 242 242 243 245 246 247 251 255 258 264 269 271 271 274 277 278 279 280 281 283 285 287 288 289 289 290 290 291 291 292 292 292 291 291 292 292 292 293 293 293 294 294
240 243 241 241 243 244 245 245 247 253 258 262 266 271 271 268 274 277 279 281 282 284 287 289 289 290 290 290 291 292 292 292 292 292 292 292 292 292 292 292 293 293 294 295
238 240 240 239 241 243 244 246 249 252 256 262 266 268 274 275 274 276 279 281 284 286 288 290 290 291 291 292 292 293 293 293 293 293 293 293 293 293 293 293 294 294 295 296
234 238 241 240 241 241 243 245 249 252 257 260 264 268 275 277 276 276 279 282 285 287 289 290 291 291 292 292 293 293 294 294 294 294 293 293 293 294 294 294 295 296 296 297
234 236 240 242 240 241 244 246 250 254 258 262 267 273 274 275 275 277 280 283 286 288 289 290 291 292 292 293 293 294 294 294 294 294 294 294 294 295 295 296 297 298 298 299
234 237 239 243 245 244 246 248 252 256 261 265 268 273 275 275 275 277 281 284 286 288 290 291 291 292 293 293 294 294 294 294 294 295 295 295 296 296 297 297 298 299 299 300
236 238 240 242 248 251 251 251 254 259 264 267 270 270 274 276 279 281 283 286 288 290 291 291 292 292 293 294 294 294 295 295 295 295 296 296 297 297 298 299 300 300 301 302
239 242 242 243 247 252 254 256 258 261 265 269 270 272 273 275 280 284 286 287 289 290 291 291 292 293 293 294 294 294 295 295 295 296 296 297 298 298 299 300 301 302 303 303
241 244 245 246 248 252 255 260 262 265 267 269 272 274 274 276 280 283 286 288 290 291 291 292 292 293 293 294 294 295 295 295 295 296 297 298 298 299 300 301 302 303 304 305
242 245 249 251 251 254 261 261 263 266 268 271 273 275 276 279 281 283 285 287 289 290 290 291 292 293 293 294 294 295 295 295 296 297 298 298 299 300 301 302 303 304 305 306
244 247 251 254 257 260 261 265 268 269 269 272 275 276 279 281 282 283 285 286 288 289 290 291 292 293 293 294 294 294 295 295 296 297 298 299 300 301 302 303 304 305 306 307
245 249 253 256 260 263 266 268 269 271 272 274 275 276 278 281 282 283 284 286 287 288 289 291 292 292 293 294 294 294 295 296 297 298 299 300 301 302 303 304 305 306 308 309
247 250 254 258 262 264 268 271 273 274 277 277 277 278 280 281 282 283 285 286 287 288 289 291 292 293 293 294 294 295 296 297 298 299 300 301 302 303 305 306 307 308 309 310
247 250 254 259 263 268 272 273 274 276 277 279 281 282 283 283 283 284 286 287 288 289 290 291 293 293 294 295 295 296 297 298 299 300 301 303 304 305 306 307 309 310 310 311
250 252 256 260 264 268 270 273 274 276 278 280 282 284 285 285 285 286 287 288 290 291 292 293 294 294 295 296 296 297 298 299 300 302 303 304 305 306 308 309 310 311 311 311
254 255 258 260 263 267 270 273 275 276 278 281 282 284 285 286 286 287 288 289 291 292 293 294 294 295 295 297 298 299 300 301 302 303 304 305 306 308 309 310 311 312 312 312
256 256 258 261 264 267 269 272 274 276 278 281 282 284 286 286 287 288 289 290 291 292 293 294 295 295 296 298 299 300 301 302 303 304 306 307 308 309 310 311 312 312 312 312
256 258 259 261 264 267 270 271 273 275 278 280 282 284 286 286 287 288 290 291 292 293 294 295 296 297 298 299 300 301 302 303 305 306 307 308 309 309 310 311 311 312 312 312
Height
5797 5801 5804 5806 5807 5809 5809 5811 5811 5812 5813 5813 5813 5814 5814 5814 5814 5814 5814 5814 5813 5813 5812 5812 5811 5810 5809 5808 5807 5806 5805 5803 5802 5800 5799 5797 5795 5793 5792 5790 5788 5787 5785 5784
5791 5795 5797 5798 5800 5803 5804 5805 5806 5806 5807 5808 5808 5809 5809 5809 5809 5809 5809 5809 5809 5808 5807 5807 5806 5805 5804 5803 5802 5801 5799 5798 5796 5794 5793 5791 5789 5787 5786 5784 5782 5780 5778 5776
5785 5790 5790 5792 5795 5796 5798 5799 5800 5801 5802 5802 5802 5804 5804 5804 5804 5804 5804 5804 5803 5803 5802 5802 5801 5800 5799 5798 5796 5795 5794 5792 5790 5788 5786 5785 5783 5781 5779 5777 5775 5773 5771 5769
5778 5782 5784 5787 5789 5790 5792 5793 5795 5795 5796 5797 5797 5797 5799 5799 5799 5798 5798 5798 5798 5798 5797 5796 5796 5795 5793 5792 5791 5789 5788 5786 5784 5782 5780 5778 5776 5774 5772 5770 5768 5766 5763 5761
5773 5776 5778 5781 5783 5784 5786 5788 5789 5789 5789 5791 5792 5790 5793 5794 5794 5793 5793 5793 5793 5793 5792 5791 5790 5789 5788 5786 5785 5783 5781 5779 5777 5775 5774 5771 5769 5767 5765 5763 5760 5758 5755 5753
5767 5769 5772 5775 5777 5779 5781 5782 5783 5783 5783 5786 5787 5785 5786 5788 5788 5788 5788 5788 5787 5787 5786 5785 5784 5783 5782 5780 5779 5777 5775 5773 5771 5769 5767 5764 5762 5760 5757 5755 5752 5749 5746 5743
5760 5763 5765 5768 5771 5773 5775 5777 5778 5778 5778 5780 5781 5780 5781 5782 5782 5782 5782 5782 5782 5781 5780 5779 5778 5777 5775 5774 5772 5770 5768 5766 5764 5762 5759 5757 5754 5752 5749 5746 5743 5740 5737 5734
5753 5757 5759 5762 5765 5767 5768 5771 5773 5774 5773 5773 5774 5775 5777 5776 5775 5775 5776 5776 5776 5775 5774 5773 5772 5770 5769 5767 5765 5763 5761 5759 5757 5754 5751 5749 5746 5743 5740 5737 5734 5730 5727 5724
5747 5749 5753 5756 5758 5760 5762 5764 5767 5767 5767 5768 5769 5770 5772 5771 5769 5769 5769 5770 5770 5769 5768 5767 5765 5764 5762 5760 5758 5756 5754 5751 5748 5746 5743 5740 5737 5734 5731 5727 5724 5720 5717 5713
5739 5742 5746 5748 5751 5754 5757 5759 5760 5760 5761 5762 5764 5764 5765 5767 5765 5763 5763 5763 5763 5762 5761 5760 5758 5756 5754 5752 5750 5747 5745 5742 5740 5737 5734 5731 5727 5724 5721 5717 5713 5709 5705 5701
5733 5736 5739 5743 5746 5749 5751 5753 5754 5755 5756 5756 5757 5760 5758 5760 5759 5758 5757 5756 5756 5755 5754 5752 5751 5748 5746 5744 5741 5739 5736 5733 5730 5727 5724 5720 5717 5713 5710 5706 5702 5698 5693 5688
5727 5730 5733 5737 5740 5741 5744 5746 5748 5749 5750 5750 5751 5755 5753 5752 5751 5751 5750 5750 5749 5748 5746 5744 5742 5740 5737 5735 5732 5729 5726 5723 5720 5716 5713 5709 5706 5702 5698 5694 5689 5685 5680 5675
5721 5724 5728 5730 5734 5736 5737 5740 5741 5742 5743 5743 5744 5748 5746 5745 5744 5743 5743 5742 5741 5740 5738 5736 5733 5731 5728 5726 5723 5719 5716 5713 5709 5705 5702 5698 5694 5690 5686 5681 5676 5671 5666 5661
5716 5719 5723 5725 5725 5729 5731 5734 5734 5735 5736 5737 5739 5739 5738 5737 5736 5736 5735 5734 5733 5731 5729 5727 5724 5721 5718 5715 5712 5709 5705 5702 5698 5694 5690 5686 5682 5678 5673 5668 5663 5657 5652 5646
5709 5713 5716 5718 5719 5722 5724 5726 5728 5729 5730 5730 5732 5731 5731 5728 5727 5728 5727 5725 5724 5722 5720 5717 5714 5711 5708 5705 5701 5698 5694 5690 5686 5682 5678 5674 5669 5665 5660 5654 5649 5643 5637 5630
5703 5706 5709 5711 5713 5714 5716 5719 5721 5722 5723 5723 5723 5724 5723 5721 5719 5718 5717 5716 5714 5712 5710 5707 5703 5700 5697 5694 5690 5687 5683 5679 5674 5670 5666 5661 5656 5651 5646 5640 5634 5628 5621 5614
5696 5699 5701 5704 5706 5706 5709 5713 5714 5714 5715 5715 5714 5716 5714 5713 5712 5710 5707 5706 5704 5702 5699 5696 5693 5690 5686 5683 5679 5675 5671 5667 5662 5658 5653 5648 5643 5637 5631 5625 5619 5612 5605 5598
5689 5692 5693 5695 5698 5698 5706 5705 5706 5706 5707 5707 5706 5706 5705 5704 5702 5701 5699 5696 5693 5691 5688 5685 5682 5679 5675 5671 5667 5663 5659 5655 5650 5645 5640 5635 5629 5623 5617 5611 5604 5597 5589 5581
5682 5684 5685 5687 5688 5691 5695 5697 5698 5698 5699 5699 5697 5696 5695 5694 5692 5691 5689 5686 5683 5681 5678 5675 5671 5668 5664 5660 5656 5651 5647 5642 5637 5632 5627 5621 5615 5609 5602 5596 5588 5581 5573 5564
5673 5675 5678 5679 5680 5682 5688 5688 5688 5689 5689 5690 5688 5686 5685 5684 5683 5682 5678 5675 5673 5670 5667 5663 5660 5656 5652 5648 5644 5639 5634 5629 5624 5619 5613 5607 5600 5594 5587 5580 5572 5564 5555 5546
5666 5667 5669 5671 5671 5674 5678 5678 5678 5680 5681 5679 5677 5676 5675 5673 5672 5670 5667 5664 5661 5659 5655 5652 5648 5644 5640 5635 5631 5627 5622 5616 5611 5605 5599 5593 5586 5579 5571 5564 5555 5546 5538 5529
5657 5659 5661 5662 5663 5668 5670 5669 5669 5669 5668 5667 5666 5665 5664 5662 5660 5658 5655 5653 5650 5647 5643 5640 5636 5632 5627 5623 5618 5614 5608 5603 5597 5591 5585 5578 5571 5563 5555 5547 5538 5528 5519 5510
5649 5652 5653 5655 5658 5659 5659 5659 5658 5658 5657 5656 5655 5654 5652 5650 5648 5646 5644 5641 5638 5635 5631 5627 5623 5619 5614 5610 5605 5600 5594 5589 5583 5577 5570 5563 5555 5547 5538 5529 5520 5511 5500 5490
5640 5642 5644 5646 5647 5648 5648 5648 5648 5647 5646 5646 5644 5643 5641 5639 5637 5635 5632 5629 5626 5623 5619 5615 5611 5606 5601 5596 5591 5586 5580 5574 5568 5561 5554 5547 5539 5531 5522 5512 5502 5492 5482 5471
5631 5633 5634 5636 5638 5638 5638 5638 5637 5637 5636 5635 5633 5631 5629 5628 5625 5623 5620 5617 5614 5610 5606 5602 5598 5593 5588 5583 5578 5572 5565 5559 5553 5546 5538 5530 5522 5513 5505 5496 5485 5474 5464 5451
5622 5624 5626 5627 5628 5628 5629 5628 5627 5626 5625 5623 5622 5620 5618 5616 5614 5611 5608 5605 5601 5598 5593 5589 5585 5580 5575 5569 5564 5557 5550 5544 5537 5530 5522 5514 5505 5496 5486 5477 5469 5458 5446 5436